Volver al catálogo

STEX

ActivoCienciaPO
NORAD 25489·PAYLOAD·🇺🇸 United States

Lanzado Oct 3, 1998 desde Vandenberg Space Force Base

Loading…

Próximos Pases (próximas 24 horas)

TLE

ActualizadoSource: Space-Track

Época: Sep 14, 2026, 12:00 UTC

1 25489U 98055A   26257.50031964  .00000319  00000-0  73729-4 0  9990
2 25489  84.9787 281.5971 0010701 122.5464 237.6774 14.51910733476297

Sigue STEX en tiempo real con AllMySat

Download on the App Store